MST,Max TemperatureF,Mean TemperatureF,Min TemperatureF,Max Dew PointF,MeanDew PointF,Min DewpointF,Max Humidity, Mean Humidity, Min Humidity, Max Sea Level PressureIn, Mean Sea Level PressureIn, Min Sea Level PressureIn, Max VisibilityMiles, Mean VisibilityMiles, Min VisibilityMiles, Max Wind SpeedMPH, Mean Wind SpeedMPH, Max Gust SpeedMPH,PrecipitationIn, CloudCover, Events, WindDirDegrees
2012-12-1,58,53,48,42,39,38,71,59,47,29.85,29.79,29.64,10,10,8,22,13,30,0.02,6,Rain,130
2012-12-2,62,49,35,43,34,26,64,52,39,30.06,29.63,29.35,10,10,9,30,13,38,0.04,6,Rain,205
2012-12-3,52,43,34,29,28,26,75,57,38,30.21,30.16,30.08,10,10,10,16,9,20,0.00,0,,134
2012-12-4,55,49,43,48,39,26,93,68,42,30.13,30.08,30.00,10,10,7,24,17,30,0.22,7,Rain,124
2012-12-5,58,48,37,48,42,33,93,72,50,30.10,30.04,29.97,10,10,6,20,6,24,0.25,5,Rain,90
2012-12-6,45,39,33,34,31,27,92,75,58,30.16,30.11,30.06,10,10,10,9,3,14,0.00,5,,293
2012-12-7,45,37,28,29,26,24,85,65,45,30.18,30.11,29.98,10,10,10,18,3,23,0.00,4,,121
2012-12-8,43,37,31,34,29,24,100,77,53,30.24,30.11,29.98,10,7,1,26,8,41,0.08,7,Snow,310
2012-12-9,37,31,25,29,26,20,92,72,52,30.47,30.34,30.19,10,9,2,9,3,12,0.01,6,Snow,298
2012-12-10,44,38,32,33,31,28,89,77,65,30.34,30.25,30.16,10,8,2,12,4,13,0.02,6,Rain-Snow,300
2012-12-11,49,40,30,33,30,27,92,69,46,30.17,29.84,29.58,10,10,9,18,9,29,0.11,3,,126
2012-12-12,45,40,35,36,35,33,92,79,65,29.86,29.74,29.62,10,9,5,14,4,15,0.22,7,Rain,66
2012-12-13,36,34,31,32,30,28,100,88,75,29.98,29.91,29.83,10,6,1,7,2,9,0.00,7,,252
2012-12-14,41,36,31,30,29,27,89,74,59,29.89,29.81,29.73,10,10,8,9,3,12,T,8,,303
2012-12-15,40,37,33,31,27,22,89,69,48,29.94,29.88,29.79,10,10,3,16,4,22,T,7,Snow,130
2012-12-16,42,38,33,34,31,28,89,81,73,29.94,29.82,29.60,10,7,1,24,10,31,0.06,8,Rain-Snow,132
2012-12-17,49,38,27,36,27,19,70,54,37,29.96,29.72,29.52,10,10,10,30,14,37,0.01,4,,262
2012-12-18,35,28,20,18,16,14,77,62,47,30.09,30.00,29.94,10,10,10,13,4,15,0.00,0,,344
2012-12-19,35,27,18,16,13,10,80,58,35,30.30,30.24,30.10,10,10,10,23,12,30,0.00,2,,120
2012-12-20,45,39,33,10,8,4,35,27,19,30.23,30.10,29.99,10,10,10,33,19,45,0.00,2,,150
2012-12-21,46,43,39,16,11,9,37,30,22,29.98,29.94,29.88,10,10,10,22,14,29,0.00,7,,149
2012-12-22,49,41,33,34,20,12,82,53,24,29.94,29.81,29.71,10,10,10,25,14,33,0.01,5,Rain,130
2012-12-23,42,37,31,34,30,27,89,77,64,30.03,29.87,29.70,10,9,2,26,14,33,0.05,7,Rain-Snow,127
2012-12-24,40,33,26,33,26,20,92,76,59,30.25,30.05,29.80,10,10,10,17,7,20,T,5,,324
2012-12-25,37,31,24,27,22,15,85,63,40,30.24,30.02,29.85,10,6,1,29,15,38,0.03,6,Snow,129
2012-12-26,32,31,29,28,27,24,92,85,78,29.93,29.81,29.75,10,5,1,15,7,18,0.02,8,Snow,300
2012-12-27,35,31,26,27,26,22,92,78,64,30.21,30.05,29.87,10,8,3,17,7,21,T,6,Snow,301
2012-12-28,37,29,21,25,21,17,88,72,56,30.29,30.25,30.19,10,10,10,12,4,14,0.00,2,,163
2012-12-29,28,24,19,21,18,13,88,76,63,30.28,30.17,30.05,10,6,2,14,5,17,0.09,5,Snow,289
2012-12-30,25,19,13,21,18,9,92,86,80,30.36,30.24,30.07,10,5,1,9,3,12,0.01,7,Snow,299
2012-12-31,26,20,13,18,14,9,92,80,68,30.50,30.37,30.24,10,8,0,16,5,20,0.00,5,Fog,315